Weather History for Doha, Qatar

Change the Weather History Date:

Tuesday, October 1, 2013

  Actual Average Record
Temperature  
Mean Temperature 88 °F -  
Max Temperature 93 °F 95 °F 109 °F (2001)
Min Temperature 82 °F 74 °F 78 °F (2006)
Cooling Degree Days 22    
Growing Degree Days 38 (Base 50)    
Moisture  
Dew Point 73 °F    
Average Humidity 61    
Maximum Humidity 79    
Minimum Humidity 41    
Precipitation  
Precipitation 0.00 in 0.00 in - ()
Sea Level Pressure  
Sea Level Pressure 29.73 in    
Wind  
Wind Speed 4 mph ()    
Max Wind Speed 9 mph    
Max Gust Speed -    
Visibility 6.1 miles    
Events      
Averages and records for this station are not official NWS values.
T = Trace of Precipitation, MM = Missing Value Source: Averaged Metar Reports

Daily Weather History Graph

Daily Weather History Graph

Search for Another Location

Airport:

Trip Planner

Search our weather history database for the weather conditions in past years. The results will help you decide how hot, cold, wet, or windy it might be!

Date:

Astronomy

Oct. 01, 2013 Rise Set
Actual Time 5:25 AM AST 5:20 PM AST
Civil Twilight 5:02 AM AST 5:43 PM AST
Nautical Twilight 4:36 AM AST 6:09 PM AST
Astronomical Twilight 4:09 AM AST 6:36 PM AST
Moon 1:57 AM AST (10/1) 2:54 PM AST (10/1)
Length of Visible Light 12h 40m
Length of Day
11h 54m
Waning Crescent, 14% of the Moon is Illuminated
Oct 1
Waning Crescent
Oct 5
New
Oct 12
First Quarter
Oct 19
Full
Oct 27
Last Quarter

Hourly Weather History & Observations

Time (AST) Temp. Heat Index Dew Point Humidity Pressure Visibility Wind Dir Wind Speed Gust Speed Precip Events Conditions
12:00 AM 86.0 °F 93.4 °F 73.4 °F 66% 29.68 in 6.2 mi NNE 5.8 mph - N/A   Partly Cloudy
1:00 AM 86.0 °F 93.4 °F 73.4 °F 66% 29.68 in 6.2 mi NNE 4.6 mph - N/A   Partly Cloudy
2:00 AM 84.2 °F 90.9 °F 73.4 °F 70% 29.68 in 6.2 mi North 5.8 mph - N/A   Partly Cloudy
3:00 AM 84 °F - 75 °F 68% 29.69 in 6 mi North 3.5 mph - -   Scattered Clouds
3:00 AM 84.2 °F 92.3 °F 75.2 °F 74% 29.68 in 6.2 mi North 3.5 mph - N/A   Partly Cloudy
3:30 AM 84.2 °F 92.3 °F 75.2 °F 74% 29.68 in 6.2 mi Variable 2.3 mph - N/A   Partly Cloudy
4:00 AM 84.2 °F 92.3 °F 75.2 °F 74% 29.68 in 6.2 mi Variable 2.3 mph - N/A   Partly Cloudy
4:30 AM 82.4 °F 89.5 °F 75.2 °F 79% 29.71 in 6.2 mi Variable 2.3 mph - N/A   Partly Cloudy
5:00 AM 82.4 °F 89.5 °F 75.2 °F 79% 29.71 in 6.2 mi Variable 1.2 mph - N/A   Partly Cloudy
6:00 AM 82.4 °F 89.5 °F 75.2 °F 79% 29.74 in 5.6 mi Variable 1.2 mph - N/A   Partly Cloudy
7:00 AM 86.0 °F 95.1 °F 75.2 °F 70% 29.74 in 5.6 mi North 3.5 mph - N/A   Partly Cloudy
7:30 AM 86.0 °F 95.1 °F 75.2 °F 70% 29.74 in 5.6 mi NNE 3.5 mph - N/A   Partly Cloudy
8:00 AM 87.8 °F 97.6 °F 75.2 °F 66% 29.77 in 6.2 mi Variable 2.3 mph - N/A   Partly Cloudy
8:30 AM 87.8 °F 95.6 °F 73.4 °F 62% 29.77 in 6.2 mi NE 4.6 mph - N/A   Partly Cloudy
9:00 AM 90 °F - 74 °F 50% 29.78 in 7 mi East 5.8 mph - -   Scattered Clouds
9:00 AM 89.6 °F 98.2 °F 73.4 °F 59% 29.77 in 6.2 mi East 5.8 mph - N/A   Partly Cloudy
9:30 AM 91.4 °F 98.4 °F 71.6 °F 52% 29.77 in 6.2 mi East 6.9 mph - N/A   Partly Cloudy
10:00 AM 91.4 °F 100.1 °F 73.4 °F 55% 29.77 in 6.2 mi East 5.8 mph - N/A   Partly Cloudy
10:30 AM 91.4 °F 98.4 °F 71.6 °F 52% 29.77 in 6.2 mi ESE 8.1 mph - N/A   Partly Cloudy
11:00 AM 91.4 °F 100.1 °F 73.4 °F 55% 29.74 in 6.2 mi ESE 6.9 mph - N/A   Partly Cloudy
11:30 AM 91.4 °F 98.4 °F 71.6 °F 52% 29.74 in - ESE 6.9 mph - N/A   Clear
12:00 PM 91.4 °F 98.4 °F 71.6 °F 52% 29.74 in - East 5.8 mph - N/A   Clear
12:30 PM 91.4 °F 98.4 °F 71.6 °F 52% 29.71 in - East 8.1 mph - N/A   Clear
1:00 PM 93.2 °F 100.5 °F 71.6 °F 49% 29.71 in - ESE 6.9 mph - N/A   Clear
1:30 PM 93.2 °F 98.8 °F 69.8 °F 46% 29.71 in - ESE 5.8 mph - N/A   Clear
2:00 PM 93.2 °F 98.8 °F 69.8 °F 46% 29.71 in - East 5.8 mph - N/A   Clear
3:00 PM 92 °F - 71 °F 41% 29.72 in 6 mi East 9.2 mph - -  
3:00 PM 91.4 °F 98.4 °F 71.6 °F 52% 29.71 in - East 9.2 mph - N/A   Clear
3:30 PM 91.4 °F 98.4 °F 71.6 °F 52% 29.71 in - East 6.9 mph - N/A   Clear
4:00 PM 91.4 °F 96.8 °F 69.8 °F 49% 29.71 in - East 6.9 mph - N/A   Clear
5:00 PM 89.6 °F 94.7 °F 69.8 °F 52% 29.71 in - ESE 4.6 mph - N/A   Clear
6:00 PM 89.6 °F 96.2 °F 71.6 °F 55% 29.74 in - SE 4.6 mph - N/A   Clear
7:00 PM 89.6 °F 98.2 °F 73.4 °F 59% 29.74 in - ESE 3.5 mph - N/A   Clear
7:30 PM 87.8 °F 95.6 °F 73.4 °F 62% 29.74 in - ENE 3.5 mph - N/A   Clear
8:00 PM 87.8 °F 97.6 °F 75.2 °F 66% 29.77 in - Variable 2.3 mph - N/A   Clear
8:30 PM 87.8 °F 95.6 °F 73.4 °F 62% 29.77 in - North 4.6 mph - N/A   Clear
9:00 PM 88 °F - 75 °F 58% 29.78 in 6 mi North 4.6 mph - -  
9:00 PM 87.8 °F 97.6 °F 75.2 °F 66% 29.77 in - North 4.6 mph - N/A   Clear
9:30 PM 87.8 °F 97.6 °F 75.2 °F 66% 29.77 in - NNE 4.6 mph - N/A   Clear
10:00 PM 86.0 °F 95.1 °F 75.2 °F 70% 29.77 in - North 4.6 mph - N/A   Clear
10:30 PM 86.0 °F 93.4 °F 73.4 °F 66% 29.77 in - North 5.8 mph - N/A   Clear
11:00 PM 87.8 °F 92.6 °F 69.8 °F 55% 29.77 in - NNW 6.9 mph - N/A   Clear
11:30 PM 86.0 °F 90.4 °F 69.8 °F 58% 29.77 in - North 5.8 mph - N/A   Clear